• In Germany
  • List of Countries
  • For 7 days
  • Water Temperature
  • Satellite Maps
  • Weather Map
  • Weather Widgets
  • user-avatar
    Login

    Hourly Weather Klerwo

    Today, 17 January, Wednesday

    Time Temperature Precipitation Wind Pressure Humidity
    00:00 -1°C° 0.5 mm 6 mps 712 mmHg 83%
    01:00 -1°C° 0.2 mm 6 mps 712 mmHg 82%
    02:00 -2°C° 0.2 mm 6 mps 712 mmHg 81%
    03:00 -2°C° 0.2 mm 6 mps 712 mmHg 80%
    04:00 -2°C° 0.1 mm 6 mps 713 mmHg 79%
    05:00 -3°C° 0.1 mm 6 mps 714 mmHg 79%
    06:00 -3°C° 0.1 mm 6 mps 714 mmHg 78%
    07:00 -3°C° 0.1 mm 7 mps 715 mmHg 77%
    08:00 -3°C° 0.1 mm 7 mps 716 mmHg 75%
    09:00 -3°C° 0.1 mm 7 mps 717 mmHg 74%
    10:00 -3°C° 0.1 mm 7 mps 718 mmHg 74%
    11:00 -2°C° 0.1 mm 8 mps 718 mmHg 73%
    12:00 -1°C° 0.1 mm 8 mps 719 mmHg 73%
    13:00 -1°C° 0.2 mm 8 mps 720 mmHg 73%
    14:00 -1°C° 0.2 mm 8 mps 720 mmHg 73%
    15:00 -1°C° 0.2 mm 8 mps 721 mmHg 72%
    16:00 -1°C° 0.1 mm 7 mps 721 mmHg 75%
    17:00 -2°C° 0.1 mm 7 mps 722 mmHg 78%
    18:00 -2°C° 0.1 mm 6 mps 722 mmHg 81%
    19:00 -2°C° 0 mm 6 mps 723 mmHg 82%
    20:00 -3°C° 0 mm 6 mps 723 mmHg 82%
    21:00 -3°C° 0 mm 6 mps 723 mmHg 83%
    22:00 -2°C° 0 mm 5 mps 723 mmHg 84%
    23:00 -2°C° 0 mm 5 mps 723 mmHg 85%

    Tomorrow, 18 January, Thursday

    Time Temperature Precipitation Wind Pressure Humidity
    00:00 -2°C° 0 mm 5 mps 723 mmHg 87%
    01:00 -2°C° 0.8 mm 6 mps 722 mmHg 88%
    02:00 -2°C° 0.8 mm 7 mps 721 mmHg 89%
    03:00 -1°C° 0.8 mm 8 mps 720 mmHg 90%
    04:00 0°C° 1.3 mm 9 mps 719 mmHg 90%
    05:00 +1°C° 1.3 mm 9 mps 718 mmHg 91%
    06:00 +2°C° 1.3 mm 10 mps 716 mmHg 91%
    07:00 +2°C° 0.6 mm 10 mps 716 mmHg 91%
    08:00 +3°C° 0.6 mm 9 mps 716 mmHg 92%
    09:00 +5°C° 0.6 mm 9 mps 716 mmHg 92%
    10:00 +5°C° 1.3 mm 9 mps 716 mmHg 92%
    11:00 +5°C° 1.3 mm 9 mps 716 mmHg 91%
    12:00 +5°C° 1.3 mm 8 mps 716 mmHg 91%
    13:00 +4°C° 1.1 mm 7 mps 716 mmHg 90%
    14:00 +4°C° 1.1 mm 7 mps 716 mmHg 90%
    15:00 +3°C° 1.1 mm 6 mps 716 mmHg 89%
    16:00 +3°C° 1 mm 5 mps 716 mmHg 90%
    17:00 +4°C° 1 mm 4 mps 715 mmHg 91%
    18:00 +3°C° 1 mm 4 mps 715 mmHg 92%
    19:00 +3°C° 0.3 mm 4 mps 716 mmHg 91%
    20:00 +2°C° 0.3 mm 5 mps 716 mmHg 89%
    21:00 +2°C° 0.3 mm 6 mps 716 mmHg 88%
    22:00 +2°C° 0.1 mm 6 mps 716 mmHg 87%
    23:00 +1°C° 0.1 mm 6 mps 717 mmHg 87%

    Day after tomorrow, 19 January, Friday

    Time Temperature Precipitation Wind Pressure Humidity
    00:00 -1°C° 0.1 mm 6 mps 717 mmHg 86%
    01:00 0°C° 0 mm 5 mps 717 mmHg 87%
    02:00 -1°C° 0 mm 5 mps 718 mmHg 88%
    03:00 -1°C° 0 mm 5 mps 718 mmHg 88%
    04:00 -2°C° 0 mm 4 mps 719 mmHg 89%
    05:00 -2°C° 0 mm 4 mps 719 mmHg 90%
    06:00 -3°C° 0 mm 4 mps 720 mmHg 91%
    07:00 -2°C° 0 mm 4 mps 720 mmHg 90%
    08:00 -2°C° 0 mm 4 mps 720 mmHg 88%
    09:00 -2°C° 0 mm 4 mps 720 mmHg 87%
    10:00 -1°C° 0 mm 4 mps 720 mmHg 83%
    11:00 0°C° 0 mm 5 mps 720 mmHg 79%
    12:00 +1°C° 0 mm 5 mps 720 mmHg 76%
    13:00 0°C° 0.2 mm 5 mps 720 mmHg 77%
    14:00 0°C° 0.2 mm 4 mps 720 mmHg 79%
    15:00 0°C° 0.2 mm 4 mps 720 mmHg 81%
    16:00 -1°C° 0 mm 4 mps 720 mmHg 84%
    17:00 -1°C° 0 mm 3 mps 720 mmHg 87%
    18:00 -1°C° 0 mm 3 mps 720 mmHg 90%
    19:00 -1°C° 0.1 mm 3 mps 720 mmHg 91%
    20:00 -1°C° 0.1 mm 3 mps 720 mmHg 92%
    21:00 -1°C° 0.1 mm 3 mps 719 mmHg 92%
    22:00 -2°C° 0.2 mm 3 mps 720 mmHg 92%
    23:00 -2°C° 0.2 mm 3 mps 720 mmHg 91%

    20 January, Saturday

    Time Temperature Precipitation Wind Pressure Humidity
    00:00 -2°C° 0.2 mm 3 mps 720 mmHg 91%
    01:00 -4°C° 0 mm 3 mps 720 mmHg 91%
    02:00 -4°C° 0 mm 3 mps 720 mmHg 91%
    03:00 -5°C° 0 mm 3 mps 720 mmHg 92%
    04:00 -5°C° 0 mm 3 mps 720 mmHg 92%
    05:00 -5°C° 0 mm 3 mps 721 mmHg 93%
    06:00 -5°C° 0 mm 3 mps 721 mmHg 94%
    07:00 -5°C° 0 mm 3 mps 721 mmHg 92%
    08:00 -4°C° 0 mm 4 mps 722 mmHg 89%
    09:00 -3°C° 0 mm 4 mps 722 mmHg 87%
    10:00 -3°C° 0 mm 4 mps 722 mmHg 85%
    11:00 -2°C° 0 mm 5 mps 722 mmHg 83%
    12:00 -1°C° 0 mm 5 mps 722 mmHg 80%
    13:00 -1°C° 0 mm 4 mps 722 mmHg 80%
    14:00 -1°C° 0 mm 4 mps 722 mmHg 80%
    15:00 0°C° 0 mm 3 mps 722 mmHg 80%
    16:00 -1°C° 0 mm 3 mps 722 mmHg 84%
    17:00 -2°C° 0 mm 3 mps 722 mmHg 89%
    18:00 -3°C° 0 mm 2 mps 723 mmHg 93%
    19:00 -3°C° 0 mm 2 mps 723 mmHg 94%
    20:00 -3°C° 0 mm 2 mps 724 mmHg 94%
    21:00 -3°C° 0 mm 2 mps 724 mmHg 95%
    22:00 -3°C° 0 mm 2 mps 724 mmHg 95%
    23:00 -3°C° 0 mm 2 mps 724 mmHg 96%

    21 January, Sunday

    Time Temperature Precipitation Wind Pressure Humidity
    00:00 -3°C° 0 mm 2 mps 724 mmHg 96%
    01:00 -3°C° 0 mm 2 mps 724 mmHg 96%
    02:00 -3°C° 0 mm 2 mps 724 mmHg 96%
    03:00 -3°C° 0 mm 2 mps 724 mmHg 96%
    04:00 -3°C° 0 mm 2 mps 724 mmHg 96%
    05:00 -3°C° 0 mm 2 mps 725 mmHg 96%
    06:00 -3°C° 0 mm 2 mps 725 mmHg 96%
    07:00 0°C° 0 mm 1 mps 725 mmHg 94%
    08:00 0°C° 0 mm 1 mps 725 mmHg 93%
    09:00 0°C° 0 mm 1 mps 726 mmHg 92%
    10:00 +1°C° 0 mm 1 mps 726 mmHg 90%
    11:00 +1°C° 0 mm 2 mps 726 mmHg 88%
    12:00 +1°C° 0 mm 2 mps 726 mmHg 85%
    13:00 +1°C° 0 mm 2 mps 726 mmHg 86%
    14:00 +1°C° 0 mm 2 mps 726 mmHg 87%
    15:00 +1°C° 0 mm 2 mps 726 mmHg 87%
    16:00 +1°C° 0 mm 2 mps 726 mmHg 89%
    17:00 -1°C° 0 mm 2 mps 726 mmHg 91%
    18:00 -2°C° 0 mm 2 mps 726 mmHg 93%
    19:00 -2°C° 0 mm 2 mps 727 mmHg 93%
    20:00 -2°C° 0 mm 2 mps 727 mmHg 94%
    21:00 -2°C° 0 mm 2 mps 727 mmHg 94%
    22:00 -2°C° 0 mm 2 mps 727 mmHg 94%
    23:00 -3°C° 0 mm 2 mps 727 mmHg 93%

    22 January, Monday

    Time Temperature Precipitation Wind Pressure Humidity
    00:00 -3°C° 0 mm 2 mps 727 mmHg 93%
    01:00 -3°C° 0 mm 2 mps 727 mmHg 92%
    02:00 -3°C° 0 mm 2 mps 727 mmHg 91%
    03:00 -3°C° 0 mm 2 mps 727 mmHg 90%
    04:00 -3°C° 0 mm 2 mps 727 mmHg 89%
    05:00 -2°C° 0 mm 2 mps 727 mmHg 89%
    06:00 -2°C° 0 mm 2 mps 727 mmHg 88%
    07:00 -2°C° 0.1 mm 2 mps 727 mmHg 88%
    08:00 -1°C° 0.1 mm 2 mps 727 mmHg 89%
    09:00 -1°C° 0.1 mm 2 mps 727 mmHg 90%
    10:00 +1°C° 0 mm 2 mps 727 mmHg 91%
    11:00 +2°C° 0 mm 2 mps 727 mmHg 92%
    12:00 +2°C° 0 mm 2 mps 727 mmHg 93%
    13:00 +3°C° 0 mm 1 mps 727 mmHg 94%
    14:00 +4°C° 0 mm 1 mps 727 mmHg 95%
    15:00 +4°C° 0 mm 1 mps 727 mmHg 96%
    16:00 +4°C° 0 mm 1 mps 727 mmHg 97%
    17:00 +4°C° 0 mm 1 mps 727 mmHg 97%
    18:00 +3°C° 0 mm 1 mps 727 mmHg 97%
    19:00 +3°C° 0 mm 1 mps 727 mmHg 97%
    20:00 +3°C° 0 mm 1 mps 727 mmHg 97%
    21:00 +3°C° 0 mm 1 mps 727 mmHg 97%
    22:00 +3°C° 0 mm 1 mps 727 mmHg 98%
    23:00 +3°C° 0 mm 1 mps 727 mmHg 98%
    Show more